TimeEST,TemperatureF,Dew PointF,Humidity,Sea Level PressureIn,VisibilityMPH,Wind Direction,Wind SpeedMPH,Gust SpeedMPH,PrecipitationIn,Events,Conditions,WindDirDegrees,DateUTC
12:15 AM,55.4,50.0,82,30.07,10.0,WSW,19.6,33.4,N/A,,Unknown,240,2012-12-03 05:15:00
12:35 AM,55.4,48.2,77,30.07,10.0,WSW,23.0,31.1,N/A,,Unknown,240,2012-12-03 05:35:00
12:55 AM,53.6,48.2,82,30.07,10.0,WSW,19.6,28.8,N/A,,Unknown,240,2012-12-03 05:55:00
1:15 AM,53.6,48.2,82,30.07,10.0,WSW,21.9,27.6,N/A,,Unknown,240,2012-12-03 06:15:00
1:35 AM,53.6,48.2,82,30.07,10.0,WSW,19.6,26.5,N/A,,Unknown,240,2012-12-03 06:35:00
1:55 AM,51.8,48.2,88,30.07,10.0,WSW,18.4,26.5,N/A,,Unknown,240,2012-12-03 06:55:00
2:15 AM,51.8,48.2,88,30.06,10.0,WSW,17.3,26.5,N/A,,Unknown,240,2012-12-03 07:15:00
2:35 AM,51.8,48.2,88,30.07,10.0,WSW,19.6,27.6,N/A,,Unknown,240,2012-12-03 07:35:00
2:55 AM,50.0,48.2,94,30.07,8.0,West,16.1,21.9,N/A,,Unknown,260,2012-12-03 07:55:00
3:15 AM,50.0,48.2,94,30.07,9.0,West,16.1,-,N/A,,Unknown,260,2012-12-03 08:15:00
3:35 AM,50.0,48.2,94,30.07,8.0,West,15.0,20.7,N/A,,Unknown,260,2012-12-03 08:35:00
3:55 AM,50.0,48.2,94,30.07,8.0,WSW,11.5,-,N/A,,Unknown,250,2012-12-03 08:55:00
4:15 AM,50.0,48.2,94,30.07,7.0,WSW,10.4,-,N/A,,Unknown,240,2012-12-03 09:15:00
4:35 AM,50.0,48.2,94,30.07,7.0,SW,8.1,-,N/A,,Unknown,230,2012-12-03 09:35:00
4:55 AM,50.0,48.2,94,30.08,7.0,West,8.1,-,N/A,,Unknown,260,2012-12-03 09:55:00
5:15 AM,50.0,48.2,94,30.08,7.0,SW,8.1,-,N/A,,Unknown,230,2012-12-03 10:15:00
5:35 AM,48.2,46.4,93,30.08,6.0,SW,5.8,-,N/A,,Mist,230,2012-12-03 10:35:00
5:55 AM,46.4,44.6,93,30.09,4.0,SW,8.1,-,N/A,,Mist,220,2012-12-03 10:55:00
6:15 AM,44.6,44.6,100,30.10,3.0,SW,4.6,-,N/A,,Mist,230,2012-12-03 11:15:00
6:35 AM,44.6,44.6,100,30.11,2.5,SW,3.5,-,N/A,,Mist,220,2012-12-03 11:35:00
6:55 AM,44.6,44.6,100,30.11,0.2,SSW,3.5,-,N/A,Fog,Fog,210,2012-12-03 11:55:00
7:15 AM,44.6,42.8,93,30.11,0.2,SW,4.6,-,N/A,Fog,Fog,220,2012-12-03 12:15:00
7:35 AM,44.6,44.6,100,30.12,0.5,SSW,5.8,-,N/A,Fog,Fog,210,2012-12-03 12:35:00
7:55 AM,46.4,46.4,100,30.12,2.5,SW,4.6,-,N/A,,Mist,220,2012-12-03 12:55:00
8:15 AM,48.2,46.4,93,30.13,3.0,SW,4.6,-,N/A,,Mist,230,2012-12-03 13:15:00
8:35 AM,48.2,48.2,100,30.13,4.0,West,9.2,-,N/A,,Mist,260,2012-12-03 13:35:00
8:55 AM,50.0,48.2,94,30.14,5.0,West,9.2,-,N/A,,Mist,270,2012-12-03 13:55:00
9:15 AM,51.8,46.4,82,30.15,7.0,West,11.5,-,N/A,,Unknown,260,2012-12-03 14:15:00
9:35 AM,53.6,46.4,77,30.15,8.0,West,10.4,-,N/A,,Unknown,280,2012-12-03 14:35:00
9:55 AM,53.6,46.4,77,30.14,10.0,West,10.4,-,N/A,,Unknown,280,2012-12-03 14:55:00
10:15 AM,55.4,46.4,72,30.14,10.0,West,8.1,-,N/A,,Unknown,280,2012-12-03 15:15:00
10:35 AM,55.4,46.4,72,30.13,10.0,West,12.7,-,N/A,,Unknown,280,2012-12-03 15:35:00
10:55 AM,55.4,44.6,67,30.13,10.0,WNW,9.2,-,N/A,,Unknown,290,2012-12-03 15:55:00
11:15 AM,57.2,44.6,63,30.12,10.0,West,11.5,-,N/A,,Unknown,280,2012-12-03 16:15:00
11:35 AM,57.2,42.8,59,30.13,10.0,NW,9.2,18.4,N/A,,Unknown,320,2012-12-03 16:35:00
11:55 AM,59.0,42.8,55,30.13,10.0,WNW,10.4,-,N/A,,Unknown,300,2012-12-03 16:55:00
12:15 PM,57.2,41.0,55,30.12,10.0,NNW,9.2,-,N/A,,Unknown,340,2012-12-03 17:15:00
12:35 PM,59.0,42.8,55,30.13,10.0,NW,10.4,16.1,N/A,,Unknown,310,2012-12-03 17:35:00
12:55 PM,57.2,41.0,55,30.13,10.0,NW,8.1,-,N/A,,Unknown,320,2012-12-03 17:55:00
1:15 PM,59.0,41.0,51,30.12,10.0,NW,6.9,-,N/A,,Unknown,320,2012-12-03 18:15:00
1:35 PM,59.0,41.0,51,30.13,10.0,WNW,10.4,-,N/A,,Unknown,300,2012-12-03 18:35:00
1:55 PM,59.0,41.0,51,30.13,10.0,WNW,10.4,-,N/A,,Unknown,300,2012-12-03 18:55:00
2:15 PM,59.0,41.0,51,30.14,10.0,NW,5.8,-,N/A,,Unknown,310,2012-12-03 19:15:00
2:35 PM,57.2,41.0,55,30.15,10.0,NW,6.9,-,N/A,,Unknown,320,2012-12-03 19:35:00
2:55 PM,57.2,41.0,55,30.15,10.0,North,6.9,-,N/A,,Unknown,350,2012-12-03 19:55:00
3:15 PM,55.4,41.0,58,30.16,10.0,ENE,10.4,-,N/A,,Unknown,60,2012-12-03 20:15:00
3:35 PM,53.6,41.0,62,30.17,10.0,NNE,5.8,-,N/A,,Unknown,20,2012-12-03 20:35:00
3:55 PM,53.6,41.0,62,30.17,10.0,NE,5.8,-,N/A,,Unknown,40,2012-12-03 20:55:00
4:15 PM,50.0,39.2,66,30.18,10.0,NE,6.9,-,N/A,,Unknown,40,2012-12-03 21:15:00
4:35 PM,50.0,41.0,71,30.19,10.0,North,5.8,-,N/A,,Unknown,10,2012-12-03 21:35:00
4:55 PM,50.0,39.2,66,30.20,10.0,North,4.6,-,N/A,,Unknown,10,2012-12-03 21:55:00
5:15 PM,48.2,39.2,71,30.21,10.0,NNE,3.5,-,N/A,,Unknown,20,2012-12-03 22:15:00
5:35 PM,42.8,37.4,81,30.22,10.0,Calm,Calm,-,N/A,,Unknown,0,2012-12-03 22:35:00
5:55 PM,44.6,39.2,81,30.23,10.0,Calm,Calm,-,N/A,,Unknown,0,2012-12-03 22:55:00
6:15 PM,42.8,39.2,87,30.23,10.0,Calm,Calm,-,N/A,,Unknown,0,2012-12-03 23:15:00
6:35 PM,39.2,35.6,87,30.24,10.0,NW,4.6,-,N/A,,Unknown,310,2012-12-03 23:35:00
6:55 PM,37.4,35.6,93,30.25,10.0,Calm,Calm,-,N/A,,Unknown,0,2012-12-03 23:55:00
7:15 PM,39.2,35.6,87,30.25,10.0,Calm,Calm,-,N/A,,Unknown,0,2012-12-04 00:15:00
7:35 PM,37.4,35.6,93,30.26,10.0,Calm,Calm,-,N/A,,Unknown,0,2012-12-04 00:35:00
7:55 PM,35.6,33.8,93,30.26,10.0,Calm,Calm,-,N/A,,Unknown,0,2012-12-04 00:55:00
8:15 PM,35.6,33.8,93,30.27,10.0,Calm,Calm,-,N/A,,Unknown,0,2012-12-04 01:15:00
8:35 PM,33.8,32.0,93,30.27,10.0,Calm,Calm,-,N/A,,Unknown,0,2012-12-04 01:35:00
8:55 PM,33.8,32.0,93,30.28,10.0,Calm,Calm,-,N/A,,Unknown,0,2012-12-04 01:55:00
9:15 PM,33.8,32.0,93,30.28,10.0,Calm,Calm,-,N/A,,Unknown,0,2012-12-04 02:15:00
9:35 PM,35.6,33.8,93,30.28,10.0,Calm,Calm,-,N/A,,Unknown,0,2012-12-04 02:35:00
9:55 PM,33.8,32.0,93,30.28,10.0,Calm,Calm,-,N/A,,Unknown,0,2012-12-04 02:55:00
10:15 PM,32.0,30.2,93,30.28,10.0,Calm,Calm,-,N/A,,Unknown,0,2012-12-04 03:15:00
10:35 PM,32.0,32.0,100,30.28,10.0,NE,3.5,-,N/A,,Unknown,50,2012-12-04 03:35:00
10:55 PM,32.0,32.0,100,30.28,10.0,NE,4.6,-,N/A,,Unknown,50,2012-12-04 03:55:00
11:15 PM,33.8,32.0,93,30.28,7.0,ENE,4.6,-,N/A,,Unknown,70,2012-12-04 04:15:00
11:35 PM,35.6,33.8,93,30.29,5.0,ENE,3.5,-,N/A,,Mist,70,2012-12-04 04:35:00
11:55 PM,32.0,32.0,100,30.30,9.0,Calm,Calm,-,N/A,,Unknown,0,2012-12-04 04:55:00